Home   Weather   Meyrin   Past weeks

Flag for Switzerland Past Weather in Meyrin, Geneva, Switzerland — Yesterday and Last 2 Weeks

Now
57 °F

Light rain. Broken clouds.


Feels Like: 55 °F
Forecast: 45 / 62 °F
Wind: 8 mph from South

Location: Geneva Cointrin Airport

Current Time: Oct 1, 2016 at 4:00:27 PM

Latest Report: Oct 1, 2016 at 3:20 PM


Visibility: N/A

Pressure: 29.98 "Hg

Humidity: 100%

Dew Point: 57 °F

Location of MeyrinLocation

Past Weather in Meyrin — Graph

°F

Meyrin Temperature Yesterday

Maximum temperature yesterday: 77 °F (at 3:20 PM)
Minimum temperature yesterday: 54 °F (at 7:20 AM)
Average temperature yesterday: 66 °F

High & Low Weather Summary for the Past Weeks

 TemperatureHumidityPressure
High77 °F (Sep 29, 2:20 PM)100% (Sep 16, 6:50 PM)30.48 "Hg (Sep 16, 6:50 PM)
Low46 °F (Sep 22, 5:20 AM)30% (Sep 29, 5:50 PM)29.92 "Hg (Oct 1, 5:50 AM)
Average60 °F77%30.14 "Hg
* Reported Sep 16 2:20 PM — Oct 1 2:50 PM, Meyrin, Weather by CustomWeather, © 2016

Note: Actual official high and low records may vary slightly from our data, if they occured in-between our weather recording intervals... More about our weather records

Advertising

Meyrin Weather History for the Previous 24 Hours

Scroll right to see more
 ConditionsComfort  
Time TempWeatherWind HumidityBarometerVisibility
2:50 PM
Sat, Oct 1
57 °FLight rain. Partly sunny.10 mph94%29.98 "Hg5 mi
2:20 PM57 °FLight rain. Partly sunny.14 mph94%29.98 "Hg4 mi
1:50 PM57 °FLight rain. Partly sunny.10 mph94%29.98 "Hg4 mi
1:20 PM59 °FRain. Broken clouds.14 mph88%29.98 "Hg2 mi
12:50 PM59 °FLight rain. Broken clouds.14 mph88%29.98 "Hg4 mi
12:20 PM61 °FLight rain. Partly sunny.16 mph83%29.98 "Hg4 mi
11:50 AM68 °FLight rain. Partly sunny.15 mph53%29.95 "HgN/A
11:20 AM66 °FBroken clouds.10 mph52%29.95 "HgN/A
10:50 AM66 °FMostly cloudy.10 mph52%29.95 "HgN/A
10:20 AM64 °FPartly sunny.9 mph56%29.92 "HgN/A
9:50 AM63 °FMore clouds than sun.7 mph64%29.92 "HgN/A
9:20 AM63 °FMore clouds than sun.7 mph64%29.92 "HgN/A
8:50 AM59 °FMore clouds than sun.1 mph72%29.92 "HgN/A
8:20 AM57 °FSunny.1 mph77%29.92 "Hg10 mi
7:50 AM59 °FSunny.1 mph72%29.92 "Hg10 mi
7:20 AM59 °FClear.1 mph77%29.92 "Hg10 mi
6:50 AM59 °FClear.1 mph77%29.92 "Hg10 mi
6:20 AM61 °FPassing clouds.3 mph72%29.92 "HgN/A
5:50 AM63 °FOvercast.7 mph68%29.92 "HgN/A
5:20 AM61 °FOvercast.5 mph72%29.95 "HgN/A
4:50 AM61 °FPassing clouds.2 mph77%29.95 "HgN/A
4:20 AM61 °FClear.2 mph72%29.95 "Hg10 mi
3:50 AM63 °FPassing clouds.8 mph73%29.95 "HgN/A
3:20 AM63 °FClear.7 mph73%29.95 "Hg10 mi
2:50 AM63 °FClear.7 mph73%29.98 "Hg10 mi
2:20 AM64 °FClear.8 mph68%29.98 "Hg10 mi
1:50 AM64 °FClear.10 mph68%29.98 "Hg10 mi
1:20 AM63 °FClear.5 mph73%29.98 "Hg10 mi
12:50 AM64 °FClear.7 mph68%29.98 "HgN/A
12:20 AM64 °FPassing clouds.6 mph68%29.98 "HgN/A
11:50 PM
Fri, Sep 30
66 °FPassing clouds.8 mph64%30.01 "HgN/A
11:20 PM66 °FPartly cloudy.13 mph60%30.01 "HgN/A
10:50 PM64 °FClear.8 mph64%30.01 "Hg10 mi
10:20 PM66 °FClear.9 mph60%30.01 "Hg10 mi
9:50 PM66 °FClear.10 mph60%30.01 "Hg10 mi
9:20 PM66 °FPassing clouds.8 mph60%30.01 "HgN/A
8:50 PM70 °FPassing clouds.10 mph50%30.01 "HgN/A
8:20 PM70 °FPassing clouds.13 mph50%30.01 "HgN/A
7:50 PM70 °FPassing clouds.9 mph50%29.98 "HgN/A
7:20 PM72 °FPassing clouds.10 mph44%29.98 "HgN/A
6:50 PM73 °FPassing clouds.12 mph41%29.98 "HgN/A
6:20 PM75 °FPassing clouds.12 mph36%29.98 "HgN/A
5:50 PM75 °FPassing clouds.13 mph36%29.98 "HgN/A
5:20 PM75 °FPassing clouds.12 mph36%30.01 "HgN/A
4:50 PM77 °FPassing clouds.14 mph32%30.01 "HgN/A
4:20 PM75 °FPassing clouds.13 mph34%30.01 "HgN/A
Weather by CustomWeather, © 2016

See weather overviewHow to use our weather pages